User: anonymous   Login
Location: Bishopstone
(51.0167°N, 1.9000°W)
Time: 01:27:51
(UTC+00:00)
Language:

Max Valier Satellite - Orbit

View from above orbital plane
View from above orbital plane
View from above satellite
View from above satellite

Ground track
Ground track

The orbit data is extracted from the following two-line orbital elements,

1 42778U 17036P   20018.37370617 +.00000577 +00000-0 +27937-4 0  9991
2 42778 097.3277 076.0243 0012165 186.1227 173.9862 15.22354758142745
Epoch (UTC): 18 January 2020 08:58:08
Eccentricity: 0.0012165
inclination: 97.3277°
perigee height: 490 km
apogee height: 507 km
right ascension of ascending node: 76.0243°
argument of perigee: 186.1227°
revolutions per day: 15.22354758
mean anomaly at epoch: 173.9862°
orbit number at epoch: 14274

The dashed part of the orbit path shows where the satellite is in the earth's shadow,  

DLR